Time,TemperatureF,DewpointF,PressureIn,WindDirection,WindDirectionDegrees,WindSpeedMPH,WindSpeedGustMPH,Humidity,HourlyPrecipIn,Conditions,Clouds,dailyrainin,SoftwareType,DateUTC
2013-03-12 00:07:00,69.8,46.9,29.94,NNE,32,2.0,9.6,44,0.00,,,-99.99,FreeWX 2.05,2013-03-12 04:07:00,
2013-03-12 00:17:00,69.8,46.9,29.94,NE,37,2.0,8.7,44,0.00,,,-99.99,FreeWX 2.05,2013-03-12 04:17:00,
2013-03-12 00:27:00,69.8,47.5,29.94,NNE,28,3.0,7.4,45,0.00,,,-99.99,FreeWX 2.05,2013-03-12 04:27:00,
2013-03-12 00:37:00,69.6,47.3,29.94,NNE,18,2.0,8.7,45,0.00,,,-99.99,FreeWX 2.05,2013-03-12 04:37:00,
2013-03-12 00:47:00,69.4,47.1,29.94,NNE,14,2.0,6.9,45,0.00,,,-99.99,FreeWX 2.05,2013-03-12 04:47:00,
2013-03-12 00:57:00,69.4,47.7,29.94,NNE,21,4.0,9.6,46,0.00,,,-99.99,FreeWX 2.05,2013-03-12 04:57:00,
2013-03-12 01:07:00,69.3,47.7,29.94,North,6,3.0,8.3,46,0.00,,,-99.99,FreeWX 2.05,2013-03-12 05:07:00,
2013-03-12 01:17:00,69.1,48.0,29.91,NNW,341,2.0,8.3,47,0.00,,,-99.99,FreeWX 2.05,2013-03-12 05:17:00,
2013-03-12 01:27:00,68.9,48.4,29.91,North,350,1.0,5.8,48,0.00,,,-99.99,FreeWX 2.05,2013-03-12 05:27:00,
2013-03-12 01:37:00,68.7,48.2,29.91,North,358,1.0,7.4,48,0.00,,,-99.99,FreeWX 2.05,2013-03-12 05:37:00,
2013-03-12 01:47:00,68.9,48.9,29.94,North,6,2.0,8.3,49,0.00,,,-99.99,FreeWX 2.05,2013-03-12 05:47:00,
2013-03-12 01:57:00,69.1,49.1,29.94,North,3,2.0,8.7,49,0.00,,,-99.99,FreeWX 2.05,2013-03-12 05:57:00,
2013-03-12 02:07:00,68.9,50.0,29.94,North,0,2.0,7.8,51,0.00,,,-99.99,FreeWX 2.05,2013-03-12 06:07:00,
2013-03-12 02:17:00,69.1,50.7,29.91,North,353,4.0,11.0,52,0.00,,,-99.99,FreeWX 2.05,2013-03-12 06:17:00,
2013-03-12 02:27:00,69.1,51.8,29.91,NNW,339,2.0,9.2,54,0.00,,,-99.99,FreeWX 2.05,2013-03-12 06:27:00,
2013-03-12 02:37:00,69.1,52.2,29.91,NNW,344,2.0,7.8,55,0.00,,,-99.99,FreeWX 2.05,2013-03-12 06:37:00,
2013-03-12 02:47:00,69.1,52.7,29.91,North,350,2.0,7.4,56,0.00,,,-99.99,FreeWX 2.05,2013-03-12 06:47:00,
2013-03-12 02:57:00,68.9,53.4,29.91,North,0,2.0,6.9,58,0.00,,,-99.99,FreeWX 2.05,2013-03-12 06:57:00,
2013-03-12 03:07:00,68.9,54.0,29.91,North,353,4.0,12.1,59,0.00,,,-99.99,FreeWX 2.05,2013-03-12 07:07:00,
2013-03-12 03:17:00,68.9,54.5,29.91,North,353,3.0,6.9,60,0.00,,,-99.99,FreeWX 2.05,2013-03-12 07:17:00,
2013-03-12 03:27:00,68.9,54.9,29.91,NNW,343,3.0,8.7,61,0.00,,,-99.99,FreeWX 2.05,2013-03-12 07:27:00,
2013-03-12 03:37:00,68.9,54.9,29.88,NNW,339,3.0,7.8,61,0.00,,,-99.99,FreeWX 2.05,2013-03-12 07:37:00,
2013-03-12 03:47:00,69.1,55.6,29.88,North,355,3.0,6.9,62,0.00,,,-99.99,FreeWX 2.05,2013-03-12 07:47:00,
2013-03-12 03:57:00,69.1,55.6,29.88,North,10,3.0,7.4,62,0.00,,,-99.99,FreeWX 2.05,2013-03-12 07:57:00,
2013-03-12 04:07:00,69.1,55.0,29.88,North,3,3.0,10.1,61,0.00,,,-99.99,FreeWX 2.05,2013-03-12 08:07:00,
2013-03-12 04:17:00,69.3,55.2,29.88,North,358,2.0,6.7,61,0.00,,,-99.99,FreeWX 2.05,2013-03-12 08:17:00,
2013-03-12 04:27:00,68.9,54.9,29.88,NNW,340,2.0,9.2,61,0.00,,,-99.99,FreeWX 2.05,2013-03-12 08:27:00,
2013-03-12 04:37:00,68.5,55.0,29.88,NNW,330,1.0,5.8,62,0.00,,,-99.99,FreeWX 2.05,2013-03-12 08:37:00,
2013-03-12 04:47:00,68.2,54.7,29.88,NNW,336,1.0,4.5,62,0.00,,,-99.99,FreeWX 2.05,2013-03-12 08:47:00,
2013-03-12 04:57:00,68.0,55.4,29.88,NNW,341,2.0,4.9,64,0.00,,,-99.99,FreeWX 2.05,2013-03-12 08:57:00,
2013-03-12 05:07:00,68.0,56.1,29.88,North,352,2.0,6.7,66,0.00,,,-99.99,FreeWX 2.05,2013-03-12 09:07:00,
2013-03-12 05:17:00,68.0,56.7,29.88,NNW,341,2.0,6.9,67,0.00,,,-99.99,FreeWX 2.05,2013-03-12 09:17:00,
2013-03-12 05:27:00,68.0,57.0,29.88,North,5,4.0,10.1,68,0.00,,,-99.99,FreeWX 2.05,2013-03-12 09:27:00,
2013-03-12 05:37:00,68.0,57.9,29.88,North,7,4.0,9.2,70,0.00,,,-99.99,FreeWX 2.05,2013-03-12 09:37:00,
2013-03-12 05:47:00,67.8,58.1,29.88,North,358,4.0,8.7,71,0.00,,,-99.99,FreeWX 2.05,2013-03-12 09:47:00,
2013-03-12 05:57:00,67.8,58.8,29.88,North,354,4.0,8.7,73,0.00,,,-99.99,FreeWX 2.05,2013-03-12 09:57:00,
2013-03-12 06:07:00,67.8,59.5,29.88,North,354,4.0,7.4,75,0.00,,,-99.99,FreeWX 2.05,2013-03-12 10:07:00,
2013-03-12 06:17:00,67.8,59.9,29.88,NNW,344,3.0,6.3,76,0.00,,,-99.99,FreeWX 2.05,2013-03-12 10:17:00,
2013-03-12 06:27:00,67.8,60.3,29.88,North,4,3.0,9.6,77,0.00,,,-99.99,FreeWX 2.05,2013-03-12 10:27:00,
2013-03-12 06:37:00,67.8,60.6,29.88,North,2,4.0,7.8,78,0.00,,,-99.99,FreeWX 2.05,2013-03-12 10:37:00,
2013-03-12 06:47:00,67.8,61.0,29.88,North,6,4.0,7.4,79,0.00,,,-99.99,FreeWX 2.05,2013-03-12 10:47:00,
2013-03-12 06:57:00,68.0,61.2,29.88,NNE,15,4.0,8.3,79,0.00,,,-99.99,FreeWX 2.05,2013-03-12 10:57:00,
2013-03-12 07:07:00,68.0,61.5,29.88,NNE,13,4.0,10.5,80,0.00,,,-99.99,FreeWX 2.05,2013-03-12 11:07:00,
2013-03-12 07:17:00,67.8,61.3,29.88,North,6,4.0,8.7,80,0.00,,,-99.99,FreeWX 2.05,2013-03-12 11:17:00,
2013-03-12 07:27:00,67.8,61.7,29.88,North,7,4.0,9.6,81,0.00,,,-99.99,FreeWX 2.05,2013-03-12 11:27:00,
2013-03-12 07:37:00,67.8,62.1,29.88,North,2,5.0,9.6,82,0.00,,,-99.99,FreeWX 2.05,2013-03-12 11:37:00,
2013-03-12 07:47:00,67.8,62.1,29.91,North,1,4.0,9.6,82,0.00,,,-99.99,FreeWX 2.05,2013-03-12 11:47:00,
2013-03-12 07:57:00,67.8,62.4,29.91,NNW,348,4.0,9.6,83,0.00,,,-99.99,FreeWX 2.05,2013-03-12 11:57:00,
2013-03-12 08:07:00,67.8,62.8,29.91,NNE,22,4.0,9.2,84,0.00,,,-99.99,FreeWX 2.05,2013-03-12 12:07:00,
2013-03-12 08:17:00,67.8,63.1,29.91,NNE,16,4.0,8.7,85,0.00,,,-99.99,FreeWX 2.05,2013-03-12 12:17:00,
2013-03-12 08:27:00,67.8,63.5,29.91,NNE,24,5.0,12.5,86,0.00,,,-99.99,FreeWX 2.05,2013-03-12 12:27:00,
2013-03-12 08:37:00,68.0,64.0,29.91,NNE,15,6.0,13.4,87,0.00,,,-99.99,FreeWX 2.05,2013-03-12 12:37:00,
2013-03-12 08:48:00,68.0,64.2,29.91,NNE,26,5.0,11.6,88,0.00,,,-99.99,FreeWX 2.05,2013-03-12 12:48:00,
2013-03-12 08:58:00,68.2,64.4,29.91,NNE,20,4.0,9.2,88,0.00,,,-99.99,FreeWX 2.05,2013-03-12 12:58:00,
2013-03-12 09:08:00,68.2,64.8,29.91,NNE,25,5.0,9.6,89,0.00,,,-99.99,FreeWX 2.05,2013-03-12 13:08:00,
2013-03-12 09:18:00,68.2,64.8,29.91,NNE,19,4.0,9.2,89,0.00,,,-99.99,FreeWX 2.05,2013-03-12 13:18:00,
2013-03-12 09:28:00,68.2,64.8,29.91,NNE,18,6.0,9.6,89,0.00,,,-99.99,FreeWX 2.05,2013-03-12 13:28:00,
2013-03-12 09:38:00,68.2,65.1,29.91,NNE,22,6.0,15.2,90,0.00,,,-99.99,FreeWX 2.05,2013-03-12 13:38:00,
2013-03-12 09:48:00,68.0,65.3,29.94,NE,39,6.0,12.5,91,0.00,,,-99.99,FreeWX 2.05,2013-03-12 13:48:00,
2013-03-12 09:58:00,68.0,65.3,29.94,NE,40,4.0,8.3,91,0.00,,,-99.99,FreeWX 2.05,2013-03-12 13:58:00,
2013-03-12 10:08:00,66.9,63.9,29.94,East,81,5.0,11.6,90,0.00,,,-99.99,FreeWX 2.05,2013-03-12 14:08:00,
2013-03-12 10:18:00,64.8,61.5,29.97,SE,142,3.0,8.7,89,0.00,,,-99.99,FreeWX 2.05,2013-03-12 14:18:00,
2013-03-12 10:28:00,64.0,60.8,29.97,SE,130,3.0,10.1,89,0.00,,,-99.99,FreeWX 2.05,2013-03-12 14:28:00,
2013-03-12 10:38:00,63.9,60.8,29.97,ESE,122,4.0,9.6,90,0.00,,,-99.99,FreeWX 2.05,2013-03-12 14:38:00,
2013-03-12 10:48:00,63.9,60.8,29.97,SE,133,4.0,10.5,90,0.00,,,-99.99,FreeWX 2.05,2013-03-12 14:48:00,
2013-03-12 10:58:00,63.9,60.8,29.97,SE,133,3.0,9.6,90,0.00,,,-99.99,FreeWX 2.05,2013-03-12 14:58:00,
2013-03-12 11:08:00,63.7,60.6,29.97,SSE,162,3.0,8.7,90,0.00,,,-99.99,FreeWX 2.05,2013-03-12 15:08:00,
2013-03-12 11:18:00,63.3,60.3,30.00,SSE,163,3.0,8.3,90,0.00,,,-99.99,FreeWX 2.05,2013-03-12 15:18:00,
2013-03-12 11:28:00,63.3,60.6,30.00,SSE,149,3.0,9.6,91,0.00,,,-99.99,FreeWX 2.05,2013-03-12 15:28:00,
2013-03-12 11:38:00,63.5,60.8,30.00,SE,143,3.0,8.3,91,0.00,,,-99.99,FreeWX 2.05,2013-03-12 15:38:00,
2013-03-12 11:48:00,63.9,61.2,30.00,SSE,164,3.0,8.3,91,0.00,,,-99.99,FreeWX 2.05,2013-03-12 15:48:00,
2013-03-12 11:58:00,64.2,61.5,30.00,South,178,2.0,7.8,91,0.00,,,-99.99,FreeWX 2.05,2013-03-12 15:58:00,
2013-03-12 12:08:00,64.6,61.9,30.00,SSE,148,3.0,10.5,91,0.00,,,-99.99,FreeWX 2.05,2013-03-12 16:08:00,
2013-03-12 12:18:00,64.4,61.7,30.00,SSE,164,3.0,8.7,91,0.00,,,-99.99,FreeWX 2.05,2013-03-12 16:18:00,
2013-03-12 12:28:00,64.8,62.1,30.00,SE,145,3.0,8.7,91,0.00,,,-99.99,FreeWX 2.05,2013-03-12 16:28:00,
2013-03-12 12:38:00,64.4,61.7,30.00,SE,134,3.0,9.2,91,0.00,,,-99.99,FreeWX 2.05,2013-03-12 16:38:00,
2013-03-12 12:48:00,64.4,61.7,30.00,SE,143,4.0,9.2,91,0.00,,,-99.99,FreeWX 2.05,2013-03-12 16:48:00,
2013-03-12 12:58:00,64.4,61.7,30.00,SSE,156,3.0,10.1,91,0.00,,,-99.99,FreeWX 2.05,2013-03-12 16:58:00,
2013-03-12 13:08:00,64.2,61.2,30.00,SSE,155,3.0,8.3,90,0.00,,,-99.99,FreeWX 2.05,2013-03-12 17:08:00,
2013-03-12 13:18:00,63.9,60.8,30.00,SSE,165,3.0,10.1,90,0.00,,,-99.99,FreeWX 2.05,2013-03-12 17:18:00,
2013-03-12 13:28:00,64.0,61.0,30.00,SSE,147,2.0,6.7,90,0.00,,,-99.99,FreeWX 2.05,2013-03-12 17:28:00,
2013-03-12 13:38:00,64.4,61.3,30.00,SSE,150,3.0,9.2,90,0.00,,,-99.99,FreeWX 2.05,2013-03-12 17:38:00,
2013-03-12 13:48:00,64.9,61.9,30.00,SE,142,3.0,7.4,90,0.00,,,-99.99,FreeWX 2.05,2013-03-12 17:48:00,
2013-03-12 13:58:00,65.5,62.4,30.00,ESE,105,3.0,7.4,90,0.00,,,-99.99,FreeWX 2.05,2013-03-12 17:58:00,
2013-03-12 14:08:00,65.7,62.2,29.97,ESE,120,4.0,11.0,89,0.00,,,-99.99,FreeWX 2.05,2013-03-12 18:08:00,
2013-03-12 14:18:00,65.1,61.5,29.97,SSE,155,4.0,9.2,88,0.00,,,-99.99,FreeWX 2.05,2013-03-12 18:18:00,
2013-03-12 14:28:00,65.8,62.2,29.97,ESE,116,3.0,10.5,88,0.00,,,-99.99,FreeWX 2.05,2013-03-12 18:28:00,
2013-03-12 14:38:00,66.2,62.2,29.97,SE,125,4.0,10.5,87,0.00,,,-99.99,FreeWX 2.05,2013-03-12 18:38:00,
2013-03-12 14:48:00,66.0,60.6,29.97,South,177,3.0,7.8,83,0.00,,,-99.99,FreeWX 2.05,2013-03-12 18:48:00,
2013-03-12 14:58:00,64.8,55.2,29.97,South,184,3.0,7.4,71,0.00,,,-99.99,FreeWX 2.05,2013-03-12 18:58:00,
2013-03-12 15:08:00,66.2,56.5,29.97,ESE,111,4.0,10.5,71,0.00,,,-99.99,FreeWX 2.05,2013-03-12 19:08:00,
2013-03-12 15:18:00,66.7,56.3,29.97,ESE,122,2.0,9.2,69,0.00,,,-99.99,FreeWX 2.05,2013-03-12 19:18:00,
2013-03-12 15:28:00,66.2,52.0,29.97,South,191,1.0,8.7,60,0.00,,,-99.99,FreeWX 2.05,2013-03-12 19:28:00,
2013-03-12 15:38:00,66.2,50.5,29.97,SE,136,3.0,11.0,57,0.00,,,-99.99,FreeWX 2.05,2013-03-12 19:38:00,
2013-03-12 15:48:00,66.4,49.3,29.97,SSE,158,3.0,8.7,54,0.00,,,-99.99,FreeWX 2.05,2013-03-12 19:48:00,
2013-03-12 15:58:00,66.4,48.7,29.97,ESE,118,3.0,8.3,53,0.00,,,-99.99,FreeWX 2.05,2013-03-12 19:58:00,
2013-03-12 16:08:00,66.6,48.4,29.97,ESE,115,4.0,8.7,52,0.00,,,-99.99,FreeWX 2.05,2013-03-12 20:08:00,
2013-03-12 16:18:00,67.5,49.3,29.97,East,90,4.0,9.2,52,0.00,,,-99.99,FreeWX 2.05,2013-03-12 20:18:00,
2013-03-12 16:28:00,67.3,48.6,29.97,ESE,114,4.0,9.6,51,0.00,,,-99.99,FreeWX 2.05,2013-03-12 20:28:00,
2013-03-12 16:38:00,67.3,47.5,29.97,ESE,119,4.0,9.2,49,0.00,,,-99.99,FreeWX 2.05,2013-03-12 20:38:00,
2013-03-12 16:48:00,66.6,45.7,29.97,SE,136,4.0,11.0,47,0.00,,,-99.99,FreeWX 2.05,2013-03-12 20:48:00,
2013-03-12 16:58:00,66.0,44.6,29.97,SE,129,4.0,7.8,46,0.00,,,-99.99,FreeWX 2.05,2013-03-12 20:58:00,
2013-03-12 17:08:00,65.5,43.0,29.97,SE,146,4.0,8.7,44,0.00,,,-99.99,FreeWX 2.05,2013-03-12 21:08:00,
2013-03-12 17:18:00,65.5,42.4,29.97,ESE,118,4.0,10.5,43,0.00,,,-99.99,FreeWX 2.05,2013-03-12 21:18:00,
2013-03-12 17:28:00,65.3,42.3,29.97,ESE,114,4.0,8.3,43,0.00,,,-99.99,FreeWX 2.05,2013-03-12 21:28:00,
2013-03-12 17:38:00,64.8,41.2,29.97,SE,138,4.0,8.7,42,0.00,,,-99.99,FreeWX 2.05,2013-03-12 21:38:00,
2013-03-12 17:48:00,63.9,40.3,29.97,South,186,3.0,8.7,42,0.00,,,-99.99,FreeWX 2.05,2013-03-12 21:48:00,
2013-03-12 17:58:00,63.5,39.9,29.97,South,171,3.0,8.7,42,0.00,,,-99.99,FreeWX 2.05,2013-03-12 21:58:00,
2013-03-12 18:08:00,63.1,39.7,29.97,SE,143,4.0,9.6,42,0.00,,,-99.99,FreeWX 2.05,2013-03-12 22:08:00,
2013-03-12 18:18:00,62.8,39.9,29.97,SSE,155,3.0,8.7,43,0.00,,,-99.99,FreeWX 2.05,2013-03-12 22:18:00,
2013-03-12 18:28:00,62.6,39.7,29.97,ESE,113,3.0,9.2,43,0.00,,,-99.99,FreeWX 2.05,2013-03-12 22:28:00,
2013-03-12 18:38:00,62.4,39.6,29.97,SE,124,2.0,6.9,43,0.00,,,-99.99,FreeWX 2.05,2013-03-12 22:38:00,
2013-03-12 18:48:00,61.9,39.7,30.00,SSE,149,1.0,7.4,44,0.00,,,-99.99,FreeWX 2.05,2013-03-12 22:48:00,
2013-03-12 18:58:00,61.5,39.4,30.00,SSE,157,2.0,8.3,44,0.00,,,-99.99,FreeWX 2.05,2013-03-12 22:58:00,
2013-03-12 19:08:00,61.3,39.2,30.00,SSE,154,1.0,7.4,44,0.00,,,-99.99,FreeWX 2.05,2013-03-12 23:08:00,
2013-03-12 19:18:00,61.2,39.6,30.00,ESE,122,1.0,5.8,45,0.00,,,-99.99,FreeWX 2.05,2013-03-12 23:18:00,
2013-03-12 19:28:00,61.0,39.6,30.00,North,-999,0.0,8.3,45,0.00,,,-99.99,FreeWX 2.05,2013-03-12 23:28:00,
2013-03-12 19:38:00,60.8,39.4,30.00,North,-999,0.0,5.8,45,0.00,,,-99.99,FreeWX 2.05,2013-03-12 23:38:00,
2013-03-12 19:48:00,60.6,39.2,30.00,North,-999,0.0,4.0,45,0.00,,,-99.99,FreeWX 2.05,2013-03-12 23:48:00,
2013-03-12 19:58:00,60.6,39.2,30.00,North,-999,0.0,5.4,45,0.00,,,-99.99,FreeWX 2.05,2013-03-12 23:58:00,
2013-03-12 20:08:00,60.4,39.0,30.00,North,-999,0.0,5.4,45,0.00,,,-99.99,FreeWX 2.05,2013-03-13 00:08:00,
2013-03-12 20:18:00,60.4,39.0,30.00,North,-999,0.0,2.7,45,0.00,,,-99.99,FreeWX 2.05,2013-03-13 00:18:00,
2013-03-12 20:28:00,60.4,39.0,30.03,North,-999,0.0,4.0,45,0.00,,,-99.99,FreeWX 2.05,2013-03-13 00:28:00,
2013-03-12 20:38:00,60.4,39.0,30.03,North,-999,0.0,5.8,45,0.00,,,-99.99,FreeWX 2.05,2013-03-13 00:38:00,
2013-03-12 20:48:00,60.4,39.6,30.03,North,-999,0.0,5.4,46,0.00,,,-99.99,FreeWX 2.05,2013-03-13 00:48:00,
2013-03-12 20:58:00,60.4,39.6,30.03,North,-999,0.0,4.9,46,0.00,,,-99.99,FreeWX 2.05,2013-03-13 00:58:00,
2013-03-12 21:08:00,60.1,39.2,30.03,North,-999,0.0,7.8,46,0.00,,,-99.99,FreeWX 2.05,2013-03-13 01:08:00,
2013-03-12 21:18:00,60.1,39.2,30.03,North,-999,0.0,5.8,46,0.00,,,-99.99,FreeWX 2.05,2013-03-13 01:18:00,
2013-03-12 21:28:00,60.1,39.7,30.03,SSE,150,1.0,6.9,47,0.00,,,-99.99,FreeWX 2.05,2013-03-13 01:28:00,
2013-03-12 21:38:00,60.1,39.7,30.03,SSE,157,1.0,6.7,47,0.00,,,-99.99,FreeWX 2.05,2013-03-13 01:38:00,
2013-03-12 21:48:00,60.1,39.7,30.03,North,-999,0.0,5.8,47,0.00,,,-99.99,FreeWX 2.05,2013-03-13 01:48:00,
2013-03-12 21:58:00,59.9,40.1,30.03,South,170,1.0,5.4,48,0.00,,,-99.99,FreeWX 2.05,2013-03-13 01:58:00,
2013-03-12 22:08:00,59.7,39.9,30.03,North,-999,0.0,6.3,48,0.00,,,-99.99,FreeWX 2.05,2013-03-13 02:08:00,
2013-03-12 22:18:00,59.7,39.9,30.03,North,-999,0.0,6.9,48,0.00,,,-99.99,FreeWX 2.05,2013-03-13 02:18:00,
2013-03-12 22:28:00,59.7,39.9,30.06,North,-999,0.0,4.5,48,0.00,,,-99.99,FreeWX 2.05,2013-03-13 02:28:00,
2013-03-12 22:38:00,59.5,40.3,30.06,North,-999,0.0,4.9,49,0.00,,,-99.99,FreeWX 2.05,2013-03-13 02:38:00,
2013-03-12 22:48:00,59.7,40.5,30.06,North,-999,0.0,3.6,49,0.00,,,-99.99,FreeWX 2.05,2013-03-13 02:48:00,
2013-03-12 22:58:00,59.7,40.5,30.06,North,-999,0.0,4.5,49,0.00,,,-99.99,FreeWX 2.05,2013-03-13 02:58:00,
2013-03-12 23:08:00,59.9,40.6,30.06,North,-999,0.0,4.9,49,0.00,,,-99.99,FreeWX 2.05,2013-03-13 03:08:00,
2013-03-12 23:18:00,59.9,40.6,30.06,North,-999,0.0,5.4,49,0.00,,,-99.99,FreeWX 2.05,2013-03-13 03:18:00,
2013-03-12 23:28:00,60.1,40.8,30.06,North,-999,0.0,5.4,49,0.00,,,-99.99,FreeWX 2.05,2013-03-13 03:28:00,
2013-03-12 23:38:00,60.1,40.8,30.06,North,-999,0.0,3.6,49,0.00,,,-99.99,FreeWX 2.05,2013-03-13 03:38:00,
2013-03-12 23:48:00,59.9,40.6,30.06,North,-999,0.0,5.8,49,0.00,,,-99.99,FreeWX 2.05,2013-03-13 03:48:00,
2013-03-12 23:58:00,60.1,41.4,30.06,North,-999,0.0,5.4,50,0.00,,,-99.99,FreeWX 2.05,2013-03-13 03:58:00,